User: anonymous   Login
Location: Churchill
(58.7670°N, 94.1670°W)
Time: 11:44:06
(UTC-05:00)
Language:

Cosmos 2142 Rocket - Orbit

View from above orbital plane
View from above orbital plane
View from above satellite
View from above satellite

Ground track
Ground track

The orbit data is extracted from the following two-line orbital elements,

1 21231U 91029B   17202.23436913 +.00000052 +00000-0 +37139-4 0  9997
2 21231 082.9517 083.4608 0036159 132.9604 346.2194 13.75746812318466
Epoch (UTC): 21 July 2017 05:37:29
Eccentricity: 0.0036159
inclination: 82.9517°
perigee height: 952 km
apogee height: 1005 km
right ascension of ascending node: 83.4608°
argument of perigee: 132.9604°
revolutions per day: 13.75746812
mean anomaly at epoch: 346.2194°
orbit number at epoch: 31846

The dashed part of the orbit path shows where the satellite is in the earth's shadow,  

DLR